This demonstration page uses our WeatherBlox Daily Observations layout. Learn more.

Left ArrowRight Arrow

Hourly Observations for October 27, 2018

Temp ( °F °C ) Dew Point ( °F °C ) Humidity (%) Winds ( mph kmh ) Pressure ( in mb ) Visibility ( mi km ) Precip ( " mm )
12:51 am 00:51 Clear 54 12.2 45 7.2 72 72 Calm 29.99 1016 10 16 0.00 0.00
1:51 am 01:51 Clear 52 11.1 45 7.2 77 77 E 5 7 30.01 1016 10 16 0.00 0.00
2:51 am 02:51 Clear 50 10 46 7.8 86 86 SSE 6 9 30.01 1016 10 16 0.00 0.00
3:51 am 03:51 Clear 51 10.6 45 7.2 80 80 SSE 5 7 30.01 1016 10 16 0.00 0.00
4:51 am 04:51 Clear 48 8.9 45 7.2 89 89 NE 3 6 30.03 1017 10 16 0.00 0.00
5:51 am 05:51 Clear 51 10.6 47 8.3 86 86 Calm 30.06 1018 10 16 0.00 0.00
6:51 am 06:51 Sunny 48 8.9 43 6.1 83 83 Calm 30.08 1019 10 16 0.00 0.00
7:51 am 07:51 Sunny 55 12.8 44 6.7 67 67 Calm 30.09 1019 10 16 0.00 0.00
9:51 am 09:51 Sunny 69 20.6 38 3.3 32 32 ESE 6 9 30.09 1019 10 16 0.00 0.00
10:51 am 10:51 Sunny 72 22.2 39 3.9 30 30 S 6 9 30.08 1019 10 16 0.00 0.00
11:51 am 11:51 Sunny 74 23.3 38 3.3 27 27 S 3 6 30.06 1018 10 16 0.00 0.00
12:51 pm 12:51 Sunny 77 25 36 2.2 23 23 Calm 30.01 1016 10 16 0.00 0.00
1:51 pm 13:51 Sunny 78 25.6 38 3.3 24 24 SSW 5 7 29.99 1016 10 16 0.00 0.00
2:51 pm 14:51 Sunny 80 26.7 37 2.8 21 21 Calm 29.98 1015 10 16 0.00 0.00
3:51 pm 15:51 Sunny 79 26.1 37 2.8 22 22 Calm 29.96 1015 10 16 0.00 0.00
4:51 pm 16:51 Sunny 79 26.1 37 2.8 22 22 SE 3 6 29.96 1015 10 16 0.00 0.00
5:51 pm 17:51 Clear 72 22.2 41 5 33 33 Calm 29.97 1015 10 16 0.00 0.00
6:51 pm 18:51 Clear 65 18.3 46 7.8 51 51 Calm 30.00 1016 10 16 0.00 0.00
7:51 pm 19:51 Clear 63 17.2 45 7.2 52 52 ENE 3 6 30.01 1016 10 16 0.00 0.00
8:51 pm 20:51 Clear 60 15.6 47 8.3 62 62 E 5 7 30.02 1017 10 16 0.00 0.00
9:51 pm 21:51 Clear 60 15.6 45 7.2 58 58 ENE 5 7 30.02 1017 10 16 0.00 0.00
10:51 pm 22:51 Clear 57 13.9 45 7.2 64 64 S 3 6 30.02 1017 10 16 0.00 0.00
11:51 pm 23:51 Clear 57 13.9 45 7.2 64 64 NNE 3 6 30.02 1017 10 16 0.00 0.00

Powered by AerisWeather